Torna al catalogo

NOAA 16 DEB

AttivoSSO
NORAD 41138·DEBRIS·🇺🇸 United States

Lanciato Sep 21, 2000 da Vandenberg Space Force Base

Loading…

Prossimi Passaggi (prossime 24 ore)

TLE

AggiornatoSource: Space-Track

Epoca: Sep 14, 2026, 11:12 UTC

1 41138U 00055BV  26257.46704577 -.00000795  00000-0 -31069-3 0  9994
2 41138  98.7020 342.2874 0012908 118.8722 241.3755 14.26593076557001

Traccia NOAA 16 DEB in tempo reale con AllMySat

Download on the App Store